Weather History for KLJF - February, 2015

Change the Weather History Date:

Saturday, February 21, 2015

  Actual Average Record
Temperature  
Mean Temperature 6 °F -  
Max Temperature 15 °F 32 °F 55 °F (1961)
Min Temperature -2 °F 13 °F -20 °F (1963)
Degree Days  
Heating Degree Days 58    
Moisture  
Dew Point 4 °F    
Average Humidity 75    
Maximum Humidity 92    
Minimum Humidity 57    
Precipitation  
Precipitation 0.00 in - - ()
Sea Level Pressure  
Sea Level Pressure 30.11 in    
Wind  
Wind Speed 12 mph (NW)    
Max Wind Speed 17 mph    
Max Gust Speed 24 mph    
Visibility 9 miles    
Events Snow    
Averages and records for this station are not official NWS values.
T = Trace of Precipitation, MM = Missing Value Source: NWS Daily Summary

Daily Weather History Graph

Daily Weather History Graph

Search for Another Location

Airport or City:

Trip Planner

Search our weather history database for the weather conditions in past years. The results will help you decide how hot, cold, wet, or windy it might be!

Date:

Astronomy

Feb. 21, 2015 Rise Set
Actual Time 7:09 AM CST 5:54 PM CST
Civil Twilight 6:40 AM CST 6:23 PM CST
Nautical Twilight 6:05 AM CST 6:58 PM CST
Astronomical Twilight 5:31 AM CST 7:32 PM CST
Moon 8:32 AM CST (2/21) 9:41 PM CST (2/21)
Length of Visible Light 11h 43m
Length of Day
10h 44m
Waxing Crescent, 11% of the Moon is Illuminated
Feb 21
Waxing Crescent
Feb 25
First Quarter
Mar 5
Full
Mar 13
Last Quarter
Mar 20
New

Hourly Weather History & Observations

Time (CST) Temp. Windchill Dew Point Humidity Pressure Visibility Wind Dir Wind Speed Gust Speed Precip Events Conditions
12:13 AM 15.8 °F 4.2 °F 12.2 °F 86% 29.86 in 10.0 mi NNW 9.2 mph - N/A   Clear
12:33 AM 15.8 °F 5.1 °F 12.2 °F 86% 29.87 in 10.0 mi NNW 8.1 mph - N/A   Mostly Cloudy
12:52 AM 15.8 °F 2.7 °F 12.2 °F 86% 29.87 in 10.0 mi NNW 11.5 mph - N/A   Overcast
1:13 AM 14.0 °F 0.5 °F 10.4 °F 86% 29.88 in 10.0 mi NNW 11.5 mph - N/A   Scattered Clouds
1:33 AM 14.0 °F 2.0 °F 10.4 °F 86% 29.89 in 10.0 mi NNW 9.2 mph - N/A   Scattered Clouds
1:53 AM 14.0 °F 0.5 °F 10.4 °F 86% 29.90 in 10.0 mi NNW 11.5 mph - N/A   Overcast
2:12 AM 15.8 °F 2.1 °F 10.4 °F 79% 29.90 in 10.0 mi NNW 12.7 mph - N/A   Overcast
2:33 AM 14.0 °F 1.2 °F 10.4 °F 86% 29.90 in 10.0 mi NNW 10.4 mph - N/A   Overcast
2:53 AM 14.0 °F 1.2 °F 10.4 °F 86% 29.91 in 10.0 mi NNW 10.4 mph 16.1 mph N/A   Mostly Cloudy
3:13 AM 14.0 °F 0.5 °F 10.4 °F 86% 29.91 in 10.0 mi NNW 11.5 mph - N/A   Overcast
3:32 AM 14.0 °F 1.2 °F 10.4 °F 86% 29.91 in 10.0 mi NNW 10.4 mph - N/A   Overcast
3:53 AM 14.0 °F 1.2 °F 10.4 °F 86% 29.91 in 10.0 mi North 10.4 mph - N/A   Overcast
4:13 AM 14.0 °F 2.0 °F 10.4 °F 86% 29.92 in 10.0 mi NNW 9.2 mph - N/A   Overcast
4:32 AM 14.0 °F 3.9 °F 10.4 °F 86% 29.93 in 10.0 mi North 6.9 mph - N/A   Overcast
4:53 AM 12.2 °F 1.7 °F 10.4 °F 92% 29.95 in 10.0 mi NNW 6.9 mph - N/A   Overcast
5:13 AM 12.2 °F 1.7 °F 10.4 °F 92% 29.96 in 10.0 mi NNW 6.9 mph - N/A   Overcast
5:32 AM 14.0 °F 2.0 °F 10.4 °F 86% 29.96 in 10.0 mi NNW 9.2 mph - N/A   Overcast
5:53 AM 12.2 °F 0.7 °F 10.4 °F 92% 29.97 in 10.0 mi NNW 8.1 mph - N/A   Overcast
6:13 AM 12.2 °F -1.0 °F 10.4 °F 92% 29.98 in 10.0 mi NNW 10.4 mph - N/A   Mostly Cloudy
6:32 AM 12.2 °F -2.5 °F 8.6 °F 85% 29.99 in 10.0 mi NNW 12.7 mph - N/A   Overcast
6:53 AM 12.2 °F -1.8 °F 8.6 °F 85% 30.00 in 7.0 mi NNW 11.5 mph 16.1 mph N/A Snow Light Snow
7:13 AM 12.2 °F -1.8 °F 10.4 °F 92% 30.00 in 4.0 mi NNW 11.5 mph - N/A Snow Light Snow
7:32 AM 12.2 °F -1.8 °F 10.4 °F 92% 30.01 in 1.8 mi NNW 11.5 mph - N/A Snow Light Snow
7:53 AM 12.2 °F -3.7 °F 10.4 °F 92% 30.02 in 3.0 mi NNW 15.0 mph - N/A Snow Light Snow
8:13 AM 12.2 °F -1.8 °F 8.6 °F 85% 30.03 in 3.0 mi NNW 11.5 mph - N/A Snow Light Snow
8:32 AM 12.2 °F -4.3 °F 8.6 °F 85% 30.04 in 4.0 mi NNW 16.1 mph - N/A Snow Light Snow
8:53 AM 12.2 °F -3.1 °F 8.6 °F 85% 30.04 in 5.0 mi North 13.8 mph - N/A Snow Light Snow
9:13 AM 12.2 °F -3.7 °F 8.6 °F 85% 30.04 in 7.0 mi North 15.0 mph - N/A   Overcast
9:33 AM 12.2 °F -3.7 °F 8.6 °F 85% 30.05 in 7.0 mi NNW 15.0 mph 19.6 mph N/A   Overcast
9:52 AM 12.2 °F -2.5 °F 8.6 °F 85% 30.05 in 7.0 mi North 12.7 mph - N/A   Overcast
10:13 AM 12.2 °F -3.1 °F 8.6 °F 85% 30.07 in 10.0 mi NNW 13.8 mph - N/A   Overcast
10:33 AM 14.0 °F -2.0 °F 6.8 °F 73% 30.07 in 10.0 mi North 16.1 mph - N/A   Mostly Cloudy
10:52 AM 14.0 °F -0.8 °F 8.6 °F 79% 30.08 in 10.0 mi NNW 13.8 mph - N/A   Scattered Clouds
11:13 AM 14.0 °F -0.2 °F 6.8 °F 73% 30.09 in 10.0 mi NNW 12.7 mph 17.3 mph N/A   Scattered Clouds
11:33 AM 15.8 °F 0.9 °F 8.6 °F 73% 30.09 in 10.0 mi NNW 15.0 mph 18.4 mph N/A   Scattered Clouds
11:52 AM 15.8 °F 0.3 °F 6.8 °F 68% 30.11 in 10.0 mi NNW 16.1 mph 20.7 mph N/A   Scattered Clouds
12:13 PM 15.8 °F -0.2 °F 6.8 °F 68% 30.10 in 10.0 mi NNW 17.3 mph 21.9 mph N/A   Mostly Cloudy
12:33 PM 14.0 °F -1.4 °F 6.8 °F 73% 30.10 in 10.0 mi NW 15.0 mph 20.7 mph N/A   Scattered Clouds
12:53 PM 15.8 °F 1.4 °F 6.8 °F 68% 30.10 in 10.0 mi NW 13.8 mph - N/A   Scattered Clouds
1:12 PM 15.8 °F 0.9 °F 6.8 °F 68% 30.10 in 10.0 mi NNW 15.0 mph 21.9 mph N/A   Scattered Clouds
1:33 PM 15.8 °F 1.4 °F 6.8 °F 68% 30.11 in 10.0 mi NW 13.8 mph 19.6 mph N/A   Scattered Clouds
1:53 PM 15.8 °F 1.4 °F 6.8 °F 68% 30.12 in 10.0 mi NW 13.8 mph - N/A   Scattered Clouds
2:12 PM 14.0 °F -2.0 °F 6.8 °F 73% 30.12 in 10.0 mi NW 16.1 mph 21.9 mph N/A   Scattered Clouds
2:33 PM 14.0 °F -1.4 °F 5.0 °F 67% 30.13 in 10.0 mi WNW 15.0 mph - N/A   Scattered Clouds
2:53 PM 14.0 °F -0.2 °F 3.2 °F 62% 30.14 in 10.0 mi NW 12.7 mph 23.0 mph N/A   Clear
3:12 PM 14.0 °F -2.0 °F 3.2 °F 62% 30.14 in 10.0 mi NW 16.1 mph 20.7 mph N/A   Clear
3:33 PM 14.0 °F -1.4 °F 1.4 °F 57% 30.16 in 10.0 mi NW 15.0 mph 20.7 mph N/A   Clear
3:53 PM 12.2 °F -3.7 °F 1.4 °F 62% 30.16 in 10.0 mi NW 15.0 mph 20.7 mph N/A   Clear
4:12 PM 12.2 °F -3.7 °F -0.4 °F 57% 30.17 in 10.0 mi NW 15.0 mph 20.7 mph N/A   Clear
4:33 PM 12.2 °F -4.3 °F -0.4 °F 57% 30.18 in 10.0 mi NW 16.1 mph 19.6 mph N/A   Clear
4:52 PM 10.4 °F -6.6 °F -2.2 °F 57% 30.19 in 10.0 mi NW 16.1 mph 20.7 mph N/A   Clear
5:13 PM 10.4 °F -7.2 °F -2.2 °F 57% 30.20 in 10.0 mi NW 17.3 mph 21.9 mph N/A   Clear
5:33 PM 8.6 °F -7.7 °F -0.4 °F 67% 30.21 in 10.0 mi NW 13.8 mph 20.7 mph N/A   Clear
5:52 PM 8.6 °F -7.7 °F -2.2 °F 62% 30.22 in 10.0 mi WNW 13.8 mph 19.6 mph N/A   Clear
6:12 PM 8.6 °F -8.3 °F -2.2 °F 62% 30.24 in 10.0 mi NW 15.0 mph 20.7 mph N/A   Clear
6:33 PM 6.8 °F -7.8 °F -2.2 °F 67% 30.26 in 10.0 mi WNW 10.4 mph 16.1 mph N/A   Clear
6:53 PM 5.0 °F -10.8 °F -2.2 °F 72% 30.27 in 10.0 mi WNW 11.5 mph 18.4 mph N/A   Clear
7:12 PM 3.2 °F -13.9 °F -5.8 °F 66% 30.28 in 10.0 mi WNW 12.7 mph 20.7 mph N/A   Clear
7:33 PM 3.2 °F -15.9 °F -5.8 °F 66% 30.29 in 10.0 mi WNW 16.1 mph 21.9 mph N/A   Clear
7:53 PM 3.2 °F -14.6 °F -5.8 °F 66% 30.30 in 10.0 mi NW 13.8 mph 19.6 mph N/A   Clear
8:12 PM 1.4 °F -18.2 °F -7.6 °F 66% 30.31 in 10.0 mi NW 16.1 mph 23.0 mph N/A   Clear
8:33 PM 1.4 °F -16.9 °F -7.6 °F 66% 30.32 in 10.0 mi NW 13.8 mph 24.2 mph N/A   Clear
8:53 PM 1.4 °F -17.6 °F -7.6 °F 66% 30.34 in 10.0 mi NW 15.0 mph 19.6 mph N/A   Clear
9:12 PM -0.4 °F -19.2 °F -7.6 °F 72% 30.35 in 10.0 mi NW 13.8 mph 20.7 mph N/A   Clear
9:33 PM -0.4 °F -21.2 °F -9.4 °F 66% 30.35 in 10.0 mi NW 17.3 mph 23.0 mph N/A   Clear
9:53 PM -0.4 °F -19.2 °F -9.4 °F 66% 30.36 in 10.0 mi NW 13.8 mph 20.7 mph N/A   Clear
10:12 PM -0.4 °F -20.5 °F -9.4 °F 66% 30.37 in 10.0 mi NW 16.1 mph 21.9 mph N/A   Clear
10:33 PM -0.4 °F -19.9 °F -9.4 °F 66% 30.38 in 10.0 mi NW 15.0 mph 19.6 mph N/A   Clear
10:53 PM -2.2 °F -19.9 °F -9.4 °F 71% 30.38 in 10.0 mi NW 11.5 mph 19.6 mph N/A   Clear
11:12 PM -2.2 °F -20.7 °F -9.4 °F 71% 30.39 in 10.0 mi NW 12.7 mph 19.6 mph N/A   Clear
11:33 PM -2.2 °F -18.9 °F -9.4 °F 71% 30.40 in 10.0 mi NW 10.4 mph 18.4 mph N/A   Clear
11:53 PM -2.2 °F -18.0 °F -9.4 °F 71% 30.41 in 10.0 mi NW 9.2 mph - N/A   Clear